Regional Weather Roundup
Issued by NWS

Home | Current Version | Previous Version | Graphics & Text | Print | Product List | Glossary On
Versions: 1 2 3 4 5 6 7 8 9 10 11 12 13 14 15 16 17 18 19 20 21 22 23 24 25 26 27 28 29 30 31 32 33 34 35 36 37 38 39 40 41 42 43 44 45 46 47 48 49 50
779
ASUS43 KLMK 220410
RWRKY
KENTUCKY REGIONAL WEATHER ROUNDUP
NATIONAL WEATHER SERVICE LOUISVILLE KY
1200 AM EDT FRI MAY 22 2015

NOTE "FAIR" INDICATES FEW OR NO CLOUDS BELOW 12,000 FEET
WITH NO SIGNIFICANT WEATHER AND/OR OBSTRUCTIONS TO VISIBILITY.

KYZ001>023-026-027-061>063-070>075-220500-
WESTERN AND SOUTH CENTRAL KENTUCKY

CITY           SKY/WX    TMP DP  RH WIND       PRES   REMARKS
PADUCAH        CLEAR     48  45  89 CALM      30.21S
HENDERSON      CLEAR     48  45  87 SW3       30.19F
OWENSBORO      CLEAR     49  46  89 CALM      30.21R
HOPKINSVILLE   CLEAR     50  47  90 S1        30.21S
BOWLING GREEN  CLEAR     49  44  83 W3        30.21S
GLASGOW        CLEAR     46  46 100 CALM      30.20S FOG
$$

KYZ024-025-028>034-038-045-046-053-220500-
NORTH CENTRAL KENTUCKY

CITY           SKY/WX    TMP DP  RH WIND       PRES   REMARKS
LOUISVILLE/SDF PTCLDY    51  44  77 SW5       30.17F
LOUISVILLE/LOU CLEAR     49  43  80 CALM      30.18S
FORT KNOX      CLEAR     44  42  92 W2        30.17S
$$

KYZ035>037-039>044-047>052-055>060-089>105-220500-
NORTHEAST KENTUCKY

CITY           SKY/WX    TMP DP  RH WIND       PRES   REMARKS
LEXINGTON      CLEAR     47  42  83 CALM      30.17S
COVINGTON      CLEAR     48  41  76 SW5       30.14R
FRANKFORT      CLEAR     45  40  82 CALM      30.16S
$$

KYZ054-064>069-076>088-106>120-220500-
SOUTHEAST KENTUCKY

CITY           SKY/WX    TMP DP  RH WIND       PRES   REMARKS
JACKSON        CLEAR     48  45  89 W3        30.16S
LONDON         MOCLDY    51  45  79 W3        30.17S
SOMERSET       CLEAR     48  45  87 CALM      30.20S
MIDDLESBORO    CLOUDY    51  48  87 CALM      30.18R
MONTICELLO     PTCLDY    50  47  89 CALM      30.22S
$$




USA.gov is the U.S. government's official web portal to all federal, state and local government web resources and services.